Weather History for KNBG - October, 2013

Change the Weather History Date:

Thursday, October 31, 2013

  Actual Average Record
Temperature  
Mean Temperature 77 °F -  
Max Temperature 84 °F 74 °F 84 °F (2013)
Min Temperature 70 °F 56 °F 44 °F (2008)
Cooling Degree Days 12    
Growing Degree Days 27 (Base 50)    
Moisture  
Dew Point 69 °F    
Average Humidity 77    
Maximum Humidity 93    
Minimum Humidity 61    
Precipitation  
Precipitation 0.00 in - - ()
Sea Level Pressure  
Sea Level Pressure 29.93 in    
Wind  
Wind Speed 11 mph (South)    
Max Wind Speed 21 mph    
Max Gust Speed 29 mph    
Visibility 10 miles    
Events Rain    
Averages and records for this station are not official NWS values.
T = Trace of Precipitation, MM = Missing Value Source: NWS Daily Summary

Daily Weather History Graph

Daily Weather History Graph

Search for Another Location

Airport or City:

Trip Planner

Search our weather history database for the weather conditions in past years. The results will help you decide how hot, cold, wet, or windy it might be!

Date:

Astronomy

Oct. 31, 2013 Rise Set
Actual Time 7:13 AM CDT 6:13 PM CDT
Civil Twilight 6:48 AM CDT 6:38 PM CDT
Nautical Twilight 6:20 AM CDT 7:06 PM CDT
Astronomical Twilight 5:52 AM CDT 7:34 PM CDT
Moon 4:15 AM CDT (10/31) 4:21 PM CDT (10/31)
Length of Visible Light 11h 49m
Length of Day
11h 00m
Waning Crescent, 10% of the Moon is Illuminated
Oct 31
Waning Crescent
Nov 3
New
Nov 9
First Quarter
Nov 17
Full
Nov 25
Last Quarter

Hourly Weather History & Observations

Time (CDT) Temp. Heat Index Dew Point Humidity Pressure Visibility Wind Dir Wind Speed Gust Speed Precip Events Conditions
12:55 AM 73.0 °F - 69.1 °F 87% 30.03 in 10.0 mi SE 5.8 mph - N/A   Partly Cloudy
1:55 AM 73.0 °F - 69.1 °F 87% 30.01 in 10.0 mi SE 6.9 mph - N/A   Scattered Clouds
2:55 AM 73.9 °F - 70.0 °F 87% 30.00 in 10.0 mi SE 6.9 mph - N/A   Mostly Cloudy
3:55 AM 75.0 °F - 70.0 °F 84% 29.97 in 10.0 mi SSE 12.7 mph - N/A   Scattered Clouds
4:55 AM 75.9 °F - 70.0 °F 82% 29.97 in 10.0 mi South 13.8 mph - N/A   Overcast
5:55 AM 77.0 °F - 69.1 °F 76% 29.96 in 10.0 mi South 15.0 mph - N/A   Overcast
6:12 AM 77.0 °F - 69.8 °F 78% 29.96 in 10.0 mi South 11.5 mph - N/A   Overcast
6:55 AM 75.9 °F - 70.0 °F 82% 29.96 in 7.0 mi South 9.2 mph - N/A   Mostly Cloudy
7:55 AM 77.0 °F - 69.1 °F 76% 29.94 in 10.0 mi South 13.8 mph - N/A   Mostly Cloudy
8:55 AM 80.1 °F 82.9 °F 69.1 °F 69% 29.96 in 10.0 mi South 18.4 mph 25.3 mph N/A   Mostly Cloudy
9:55 AM 80.1 °F 82.9 °F 69.1 °F 69% 29.97 in 10.0 mi South 19.6 mph 28.8 mph N/A   Overcast
10:55 AM 81.0 °F 83.8 °F 68.0 °F 65% 29.96 in 10.0 mi South 17.3 mph 26.5 mph N/A   Overcast
11:55 AM 82.0 °F 84.9 °F 68.0 °F 62% 29.95 in 10.0 mi South 16.1 mph - N/A   Overcast
12:55 PM 82.0 °F 84.9 °F 68.0 °F 62% 29.92 in 10.0 mi South 20.7 mph 28.8 mph N/A   Overcast
1:55 PM 84.0 °F 87.8 °F 69.1 °F 61% 29.90 in 10.0 mi South 18.4 mph - N/A   Overcast
2:55 PM 82.0 °F 84.9 °F 68.0 °F 62% 29.87 in 10.0 mi South 19.6 mph 27.6 mph N/A   Mostly Cloudy
3:55 PM 82.0 °F 85.9 °F 70.0 °F 67% 29.87 in 10.0 mi SSW 20.7 mph 26.5 mph N/A   Mostly Cloudy
4:55 PM 80.1 °F 83.2 °F 70.0 °F 71% 29.85 in 10.0 mi South 13.8 mph 21.9 mph N/A   Overcast
5:55 PM 79.0 °F - 70.0 °F 74% 29.85 in 10.0 mi SSW 11.5 mph - N/A   Overcast
6:55 PM 78.1 °F - 71.1 °F 79% 29.87 in 10.0 mi SSW 9.2 mph - N/A   Overcast
7:55 PM 77.0 °F - 72.0 °F 84% 29.90 in 10.0 mi SW 5.8 mph - N/A Rain Light Rain
8:55 PM 70.0 °F - 66.9 °F 90% 29.92 in 4.0 mi Variable 5.8 mph - N/A Rain Light Rain
9:55 PM 70.0 °F - 68.0 °F 93% 29.87 in 9.0 mi SE 5.8 mph - N/A Rain Light Rain
10:55 PM 71.1 °F - 68.0 °F 90% 29.85 in 9.0 mi SSE 5.8 mph - N/A Rain Light Rain